Time,TemperatureF,DewpointF,PressureIn,WindDirection,WindDirectionDegrees,WindSpeedMPH,WindSpeedGustMPH,Humidity,HourlyPrecipIn,Conditions,Clouds,dailyrainin,SoftwareType,DateUTC
2013-07-05 00:02:00,79.4,75.5,30.30,SSW,192,10.7,11.7,88,0.00, ,,-99.99,VWS V12.07,2013-07-05 04:02:00,
2013-07-05 00:03:00,79.4,75.6,30.30,South,188,14.9,14.9,88,0.00, ,,-99.99,VWS V12.07,2013-07-05 04:03:00,
2013-07-05 00:04:00,79.1,75.6,30.30,SSW,194,10.7,16.8,89,0.00, ,,-99.99,VWS V12.07,2013-07-05 04:04:00,
2013-07-05 00:05:00,79.7,75.9,30.30,SSW,194,11.2,16.8,88,0.00, ,,-99.99,VWS V12.07,2013-07-05 04:05:00,
2013-07-05 00:06:00,79.2,75.3,30.30,SSW,205,9.6,16.8,88,0.00, ,,-99.99,VWS V12.07,2013-07-05 04:06:00,
2013-07-05 00:11:00,79.4,76.0,30.30,SSW,192,7.6,16.8,89,0.00, ,,-99.99,VWS V12.07,2013-07-05 04:11:00,
2013-07-05 00:16:00,79.8,76.4,30.30,SSW,199,7.1,7.3,89,0.00, ,,-99.99,VWS V12.07,2013-07-05 04:16:00,
2013-07-05 00:21:00,79.4,75.6,30.30,SSW,211,8.9,11.2,88,0.00, ,,-99.99,VWS V12.07,2013-07-05 04:21:00,
2013-07-05 00:26:00,79.7,76.0,30.30,South,181,8.6,13.1,89,0.00, ,,-99.99,VWS V12.07,2013-07-05 04:26:00,
2013-07-05 00:31:00,79.1,75.1,30.30,SSW,202,9.9,15.2,88,0.00, ,,-99.99,VWS V12.07,2013-07-05 04:31:00,
2013-07-05 00:36:00,79.9,76.0,30.30,SSW,209,9.9,11.0,88,0.00, ,,-99.99,VWS V12.07,2013-07-05 04:36:00,
2013-07-05 00:41:00,79.7,76.0,30.30,SSW,204,11.2,13.0,88,0.00, ,,-99.99,VWS V12.07,2013-07-05 04:41:00,
2013-07-05 00:46:00,79.8,76.2,30.30,South,171,10.3,13.0,89,0.00, ,,-99.99,VWS V12.07,2013-07-05 04:46:00,
2013-07-05 00:51:00,79.1,75.6,30.30,SSW,199,9.6,13.7,89,0.00, ,,-99.99,VWS V12.07,2013-07-05 04:51:00,
2013-07-05 00:56:00,79.4,75.8,30.30,SSW,212,6.3,8.3,89,0.00, ,,-99.99,VWS V12.07,2013-07-05 04:56:00,
2013-07-05 01:01:00,79.9,76.4,30.29,South,185,7.1,12.0,89,0.00, ,,-99.99,VWS V12.07,2013-07-05 05:01:00,
2013-07-05 01:06:00,79.7,76.3,30.29,South,185,10.6,12.8,89,0.00, ,,-99.99,VWS V12.07,2013-07-05 05:06:00,
2013-07-05 01:11:00,79.2,75.9,30.29,SW,216,11.6,17.3,90,0.01, ,,-99.99,VWS V12.07,2013-07-05 05:11:00,
2013-07-05 01:16:00,78.4,75.1,30.29,South,171,7.6,8.1,90,0.01, ,,-99.99,VWS V12.07,2013-07-05 05:16:00,
2013-07-05 01:21:00,78.4,74.7,30.29,SSW,209,8.0,13.5,88,0.01, ,,-99.99,VWS V12.07,2013-07-05 05:21:00,
2013-07-05 01:26:00,78.9,74.4,30.29,South,181,10.9,13.5,86,0.01, ,,-99.99,VWS V12.07,2013-07-05 05:26:00,
2013-07-05 01:31:00,78.4,73.8,30.29,SSW,199,8.5,13.5,86,0.01, ,,-99.99,VWS V12.07,2013-07-05 05:31:00,
2013-07-05 01:36:00,79.1,74.7,30.29,SSW,198,9.1,9.1,86,0.01, ,,-99.99,VWS V12.07,2013-07-05 05:36:00,
2013-07-05 01:41:00,79.3,75.0,30.29,SSE,149,4.2,11.1,87,0.01, ,,-99.99,VWS V12.07,2013-07-05 05:41:00,
2013-07-05 01:46:00,79.1,75.1,30.29,SSW,195,12.0,15.6,88,0.01, ,,-99.99,VWS V12.07,2013-07-05 05:46:00,
2013-07-05 01:51:00,79.3,75.3,30.29,SSW,192,9.3,15.6,88,0.01, ,,-99.99,VWS V12.07,2013-07-05 05:51:00,
2013-07-05 01:56:00,79.7,76.0,30.29,South,182,10.7,10.7,88,0.01, ,,-99.99,VWS V12.07,2013-07-05 05:56:00,
2013-07-05 02:01:00,79.1,75.6,30.29,SSW,211,8.4,13.4,89,0.01, ,,-99.99,VWS V12.07,2013-07-05 06:01:00,
2013-07-05 02:06:00,79.3,76.2,30.29,SSW,197,11.5,13.4,90,0.01, ,,-99.99,VWS V12.07,2013-07-05 06:06:00,
2013-07-05 02:11:00,78.1,74.6,30.28,South,182,9.2,17.8,89,0.01, ,,-99.99,VWS V12.07,2013-07-05 06:11:00,
2013-07-05 02:16:00,78.0,74.3,30.28,SSW,195,7.7,8.2,88,0.00, ,,-99.99,VWS V12.07,2013-07-05 06:16:00,
2013-07-05 02:21:00,78.3,74.1,30.28,SSE,156,5.9,10.7,87,0.00, ,,-99.99,VWS V12.07,2013-07-05 06:21:00,
2013-07-05 02:26:00,78.8,74.6,30.28,SSW,212,8.7,10.7,87,0.00, ,,-99.99,VWS V12.07,2013-07-05 06:26:00,
2013-07-05 02:31:00,79.0,75.0,30.28,SSW,211,8.9,11.0,88,0.00, ,,-99.99,VWS V12.07,2013-07-05 06:31:00,
2013-07-05 02:36:00,78.7,74.8,30.28,SSW,195,9.5,9.5,88,0.00, ,,-99.99,VWS V12.07,2013-07-05 06:36:00,
2013-07-05 02:41:00,78.3,74.5,30.28,SSW,198,8.2,12.1,88,0.00, ,,-99.99,VWS V12.07,2013-07-05 06:41:00,
2013-07-05 02:46:00,79.0,75.1,30.28,South,188,6.5,13.5,88,0.00, ,,-99.99,VWS V12.07,2013-07-05 06:46:00,
2013-07-05 02:51:00,79.1,75.6,30.28,South,171,3.2,13.5,89,0.00, ,,-99.99,VWS V12.07,2013-07-05 06:51:00,
2013-07-05 02:56:00,78.3,75.0,30.28,SSW,204,7.6,8.0,90,0.00, ,,-99.99,VWS V12.07,2013-07-05 06:56:00,
2013-07-05 03:01:00,78.1,74.8,30.28,SSW,192,6.1,12.1,90,0.00, ,,-99.99,VWS V12.07,2013-07-05 07:01:00,
2013-07-05 03:06:00,78.3,74.9,30.28,SSW,208,9.2,12.1,89,0.00, ,,-99.99,VWS V12.07,2013-07-05 07:06:00,
2013-07-05 03:11:00,79.0,75.6,30.28,SSW,194,6.4,12.1,89,0.00, ,,-99.99,VWS V12.07,2013-07-05 07:11:00,
2013-07-05 03:16:00,79.1,75.6,30.28,SSW,211,7.3,7.6,89,0.00, ,,-99.99,VWS V12.07,2013-07-05 07:16:00,
2013-07-05 03:21:00,79.1,75.6,30.27,SSE,164,4.7,10.3,89,0.00, ,,-99.99,VWS V12.07,2013-07-05 07:21:00,
2013-07-05 03:26:00,78.7,75.3,30.27,SSW,212,9.5,10.3,89,0.00, ,,-99.99,VWS V12.07,2013-07-05 07:26:00,
2013-07-05 03:31:00,78.9,75.4,30.27,SSW,197,14.0,14.0,89,0.00, ,,-99.99,VWS V12.07,2013-07-05 07:31:00,
2013-07-05 03:36:00,78.4,75.0,30.27,SSW,199,7.9,10.8,89,0.00, ,,-99.99,VWS V12.07,2013-07-05 07:36:00,
2013-07-05 03:41:00,78.7,75.4,30.27,South,184,8.0,14.0,90,0.00, ,,-99.99,VWS V12.07,2013-07-05 07:41:00,
2013-07-05 03:46:00,78.8,75.1,30.27,SSW,194,12.1,14.0,88,0.00, ,,-99.99,VWS V12.07,2013-07-05 07:46:00,
2013-07-05 03:51:00,78.7,74.9,30.27,SE,136,0.0,14.0,88,0.00, ,,-99.99,VWS V12.07,2013-07-05 07:51:00,
2013-07-05 03:56:00,78.1,74.0,30.27,South,188,9.5,9.5,87,0.00, ,,-99.99,VWS V12.07,2013-07-05 07:56:00,
2013-07-05 04:02:00,78.7,74.5,30.27,South,190,9.4,13.2,87,0.00, ,,-99.99,VWS V12.07,2013-07-05 08:02:00,
2013-07-05 04:07:00,79.0,75.0,30.27,South,180,7.5,13.2,88,0.00, ,,-99.99,VWS V12.07,2013-07-05 08:07:00,
2013-07-05 04:12:00,79.1,75.1,30.27,SSW,204,9.1,13.4,88,0.00, ,,-99.99,VWS V12.07,2013-07-05 08:12:00,
2013-07-05 04:17:00,79.4,75.5,30.27,SSE,168,6.0,10.7,88,0.00, ,,-99.99,VWS V12.07,2013-07-05 08:17:00,
2013-07-05 04:22:00,78.7,74.7,30.27,SSW,205,8.5,13.0,87,0.00, ,,-99.99,VWS V12.07,2013-07-05 08:22:00,
2013-07-05 04:27:00,79.4,75.3,30.27,South,190,11.8,13.0,87,0.00, ,,-99.99,VWS V12.07,2013-07-05 08:27:00,
2013-07-05 04:32:00,79.2,75.4,30.27,SW,215,9.5,13.0,88,0.00, ,,-99.99,VWS V12.07,2013-07-05 08:32:00,
2013-07-05 04:37:00,79.4,75.7,30.27,South,187,7.4,11.9,88,0.00, ,,-99.99,VWS V12.07,2013-07-05 08:37:00,
2013-07-05 04:42:00,79.1,75.7,30.27,South,171,9.9,15.8,89,0.00, ,,-99.99,VWS V12.07,2013-07-05 08:42:00,
2013-07-05 04:47:00,79.2,75.5,30.27,South,188,10.3,15.8,88,0.00, ,,-99.99,VWS V12.07,2013-07-05 08:47:00,
2013-07-05 04:52:00,79.1,75.4,30.27,SSW,195,10.3,15.8,88,0.00, ,,-99.99,VWS V12.07,2013-07-05 08:52:00,
2013-07-05 04:57:00,78.9,74.9,30.27,SSW,213,12.3,12.3,88,0.00, ,,-99.99,VWS V12.07,2013-07-05 08:57:00,
2013-07-05 05:02:00,79.0,75.0,30.27,SW,219,9.4,12.3,88,0.00, ,,-99.99,VWS V12.07,2013-07-05 09:02:00,
2013-07-05 05:08:00,79.0,75.1,30.27,SSW,204,11.3,14.2,88,0.00, ,,-99.99,VWS V12.07,2013-07-05 09:08:00,
2013-07-05 05:13:00,79.1,75.2,30.27,SSW,195,11.0,14.2,88,0.00, ,,-99.99,VWS V12.07,2013-07-05 09:13:00,
2013-07-05 05:18:00,79.0,75.1,30.27,SSW,202,10.4,11.7,88,0.00, ,,-99.99,VWS V12.07,2013-07-05 09:18:00,
2013-07-05 05:25:00,79.2,75.6,30.27,SSW,204,8.6,12.5,89,0.00, ,,-99.99,VWS V12.07,2013-07-05 09:25:00,
2013-07-05 05:30:00,79.4,75.6,30.27,SSW,195,7.4,12.5,88,0.00, ,,-99.99,VWS V12.07,2013-07-05 09:30:00,
2013-07-05 05:36:00,79.4,75.6,30.27,SSW,212,8.3,8.3,88,0.00, ,,-99.99,VWS V12.07,2013-07-05 09:36:00,
2013-07-05 05:42:00,79.7,76.1,30.27,SSW,192,7.6,10.3,89,0.00, ,,-99.99,VWS V12.07,2013-07-05 09:42:00,
2013-07-05 05:47:00,78.7,75.2,30.27,SSW,198,7.5,12.1,89,0.00, ,,-99.99,VWS V12.07,2013-07-05 09:47:00,
2013-07-05 05:52:00,79.2,75.7,30.28,South,184,6.5,12.1,89,0.00, ,,-99.99,VWS V12.07,2013-07-05 09:52:00,
2013-07-05 05:57:00,78.8,75.4,30.28,SE,132,5.0,8.5,89,0.00, ,,-99.99,VWS V12.07,2013-07-05 09:57:00,
2013-07-05 06:03:00,78.7,75.2,30.28,SSW,212,7.1,10.1,89,0.00, ,,-99.99,VWS V12.07,2013-07-05 10:03:00,
2013-07-05 06:08:00,79.2,75.8,30.28,SSW,204,8.7,10.2,89,0.00, ,,-99.99,VWS V12.07,2013-07-05 10:08:00,
2013-07-05 06:13:00,78.7,75.1,30.28,SSW,195,5.7,11.2,89,0.00, ,,-99.99,VWS V12.07,2013-07-05 10:13:00,
2013-07-05 06:18:00,78.8,75.1,30.28,South,191,8.2,10.8,88,0.00, ,,-99.99,VWS V12.07,2013-07-05 10:18:00,
2013-07-05 06:24:00,78.8,74.8,30.28,SSW,194,9.1,10.8,88,0.00, ,,-99.99,VWS V12.07,2013-07-05 10:24:00,
2013-07-05 06:30:00,78.8,74.5,30.28,SSW,208,9.6,11.9,87,0.00, ,,-99.99,VWS V12.07,2013-07-05 10:30:00,
2013-07-05 06:35:00,79.2,74.8,30.28,SSW,192,6.6,12.4,86,0.00, ,,-99.99,VWS V12.07,2013-07-05 10:35:00,
2013-07-05 06:40:00,79.1,74.5,30.28,SSW,205,10.5,11.4,86,0.00, ,,-99.99,VWS V12.07,2013-07-05 10:40:00,
2013-07-05 06:45:00,79.3,74.4,30.28,South,190,9.2,12.9,85,0.00, ,,-99.99,VWS V12.07,2013-07-05 10:45:00,
2013-07-05 06:50:00,79.2,74.4,30.28,SSW,208,10.6,12.9,85,0.00, ,,-99.99,VWS V12.07,2013-07-05 10:50:00,
2013-07-05 06:55:00,79.7,74.9,30.28,SSW,195,8.0,12.9,85,0.00, ,,-99.99,VWS V12.07,2013-07-05 10:55:00,
2013-07-05 07:01:00,79.0,74.1,30.28,SSW,204,8.3,12.1,85,0.00, ,,-99.99,VWS V12.07,2013-07-05 11:01:00,
2013-07-05 07:06:00,79.7,74.9,30.29,SSW,208,11.0,12.1,85,0.00, ,,-99.99,VWS V12.07,2013-07-05 11:06:00,
2013-07-05 07:11:00,79.4,74.4,30.28,SSW,198,10.1,12.6,85,0.00, ,,-99.99,VWS V12.07,2013-07-05 11:11:00,
2013-07-05 07:16:00,79.7,75.0,30.29,SSE,166,8.2,8.6,86,0.00, ,,-99.99,VWS V12.07,2013-07-05 11:16:00,
2013-07-05 07:21:00,79.1,74.4,30.29,SSW,209,8.1,13.7,86,0.00, ,,-99.99,VWS V12.07,2013-07-05 11:21:00,
2013-07-05 07:26:00,79.2,74.4,30.29,South,184,9.9,13.7,85,0.00, ,,-99.99,VWS V12.07,2013-07-05 11:26:00,
2013-07-05 07:31:00,79.5,74.7,30.29,SW,216,6.1,13.7,85,0.00, ,,-99.99,VWS V12.07,2013-07-05 11:31:00,
2013-07-05 07:36:00,79.1,74.3,30.29,SSW,197,10.6,10.7,85,0.00, ,,-99.99,VWS V12.07,2013-07-05 11:36:00,
2013-07-05 07:41:00,79.4,74.6,30.29,South,191,7.0,15.0,85,0.00, ,,-99.99,VWS V12.07,2013-07-05 11:41:00,
2013-07-05 07:47:00,79.7,74.6,30.29,SSW,195,9.7,15.0,84,0.00, ,,-99.99,VWS V12.07,2013-07-05 11:47:00,
2013-07-05 07:52:00,79.8,74.4,30.29,SSW,201,8.5,15.0,84,0.00, ,,-99.99,VWS V12.07,2013-07-05 11:52:00,
2013-07-05 07:57:00,80.0,74.8,30.29,SSW,209,10.4,10.8,84,0.00, ,,-99.99,VWS V12.07,2013-07-05 11:57:00,
2013-07-05 08:02:00,80.0,74.9,30.30,SSW,198,9.4,13.0,84,0.00, ,,-99.99,VWS V12.07,2013-07-05 12:02:00,
2013-07-05 08:07:00,79.9,74.8,30.30,SSW,204,7.8,13.0,84,0.00, ,,-99.99,VWS V12.07,2013-07-05 12:07:00,
2013-07-05 08:12:00,79.8,74.7,30.30,SSW,201,6.6,13.0,84,0.00, ,,-99.99,VWS V12.07,2013-07-05 12:12:00,
2013-07-05 08:17:00,79.8,74.3,30.30,SSW,211,10.8,13.5,83,0.00, ,,-99.99,VWS V12.07,2013-07-05 12:17:00,
2013-07-05 08:22:00,79.4,74.1,30.30,South,184,10.6,13.8,84,0.00, ,,-99.99,VWS V12.07,2013-07-05 12:22:00,
2013-07-05 08:27:00,79.2,73.9,30.30,SSW,206,11.9,13.8,84,0.00, ,,-99.99,VWS V12.07,2013-07-05 12:27:00,
2013-07-05 08:32:00,79.8,74.9,30.30,South,190,10.7,13.8,85,0.00, ,,-99.99,VWS V12.07,2013-07-05 12:32:00,
2013-07-05 08:37:00,79.4,74.3,30.30,SE,139,12.1,13.8,84,0.00, ,,-99.99,VWS V12.07,2013-07-05 12:37:00,
2013-07-05 08:44:00,80.0,74.2,30.30,SSW,205,8.6,13.9,82,0.00, ,,-99.99,VWS V12.07,2013-07-05 12:44:00,
2013-07-05 08:49:00,80.0,74.2,30.30,SSE,153,11.9,15.2,82,0.00, ,,-99.99,VWS V12.07,2013-07-05 12:49:00,
2013-07-05 08:54:00,80.0,74.0,30.30,SSW,198,9.9,15.2,82,0.00, ,,-99.99,VWS V12.07,2013-07-05 12:54:00,
2013-07-05 08:59:00,80.3,74.4,30.30,South,173,10.1,13.8,82,0.00, ,,-99.99,VWS V12.07,2013-07-05 12:59:00,
2013-07-05 09:04:00,80.2,74.6,30.31,South,188,9.5,14.2,83,0.00, ,,-99.99,VWS V12.07,2013-07-05 13:04:00,
2013-07-05 09:09:00,79.9,73.9,30.31,South,191,9.5,14.2,82,0.00, ,,-99.99,VWS V12.07,2013-07-05 13:09:00,
2013-07-05 09:14:00,80.1,74.4,30.31,SSE,157,9.2,14.2,83,0.00, ,,-99.99,VWS V12.07,2013-07-05 13:14:00,
2013-07-05 09:20:00,80.4,74.6,30.31,SSW,197,8.8,12.9,83,0.00, ,,-99.99,VWS V12.07,2013-07-05 13:20:00,
2013-07-05 09:26:00,80.5,74.9,30.31,SSW,208,9.8,13.5,83,0.00, ,,-99.99,VWS V12.07,2013-07-05 13:26:00,
2013-07-05 09:31:00,80.2,74.3,30.31,SSW,204,9.9,15.0,82,0.00, ,,-99.99,VWS V12.07,2013-07-05 13:31:00,
2013-07-05 09:36:00,80.2,74.4,30.31,SSW,206,9.9,9.9,82,0.00, ,,-99.99,VWS V12.07,2013-07-05 13:36:00,
2013-07-05 09:41:00,80.2,74.2,30.31,SE,132,10.5,12.4,82,0.00, ,,-99.99,VWS V12.07,2013-07-05 13:41:00,
2013-07-05 09:47:00,80.7,74.6,30.31,SSW,201,9.5,14.4,82,0.00, ,,-99.99,VWS V12.07,2013-07-05 13:47:00,
2013-07-05 09:52:00,80.2,74.0,30.31,SSW,197,10.1,14.4,81,0.00, ,,-99.99,VWS V12.07,2013-07-05 13:52:00,
2013-07-05 09:57:00,80.3,73.9,30.31,South,188,7.6,11.7,81,0.00, ,,-99.99,VWS V12.07,2013-07-05 13:57:00,
2013-07-05 10:02:00,80.5,74.7,30.31,SSW,194,8.9,12.2,83,0.00, ,,-99.99,VWS V12.07,2013-07-05 14:02:00,
2013-07-05 10:07:00,80.5,73.8,30.31,SSE,166,11.2,15.1,80,0.00, ,,-99.99,VWS V12.07,2013-07-05 14:07:00,
2013-07-05 10:14:00,80.3,73.7,30.31,SSW,204,11.6,15.1,80,0.00, ,,-99.99,VWS V12.07,2013-07-05 14:14:00,
2013-07-05 10:19:00,80.5,73.8,30.31,SSW,208,8.0,12.2,80,0.00, ,,-99.99,VWS V12.07,2013-07-05 14:19:00,
2013-07-05 10:24:00,80.7,73.8,30.31,SSW,205,9.7,13.0,80,0.00, ,,-99.99,VWS V12.07,2013-07-05 14:24:00,
2013-07-05 10:29:00,80.8,74.1,30.31,South,185,11.6,13.9,80,0.00, ,,-99.99,VWS V12.07,2013-07-05 14:29:00,
2013-07-05 10:34:00,80.6,73.4,30.32,SSW,202,10.9,13.9,79,0.00, ,,-99.99,VWS V12.07,2013-07-05 14:34:00,
2013-07-05 10:39:00,80.9,73.7,30.32,SSW,199,9.7,15.5,79,0.00, ,,-99.99,VWS V12.07,2013-07-05 14:39:00,
2013-07-05 10:44:00,81.3,74.9,30.32,South,184,8.5,15.5,81,0.00, ,,-99.99,VWS V12.07,2013-07-05 14:44:00,
2013-07-05 10:49:00,80.9,73.7,30.32,South,184,10.5,15.5,79,0.00, ,,-99.99,VWS V12.07,2013-07-05 14:49:00,
2013-07-05 10:54:00,81.0,73.7,30.32,SW,215,7.0,15.5,79,0.00, ,,-99.99,VWS V12.07,2013-07-05 14:54:00,
2013-07-05 10:59:00,81.3,74.0,30.32,SSW,211,10.4,14.4,78,0.00, ,,-99.99,VWS V12.07,2013-07-05 14:59:00,
2013-07-05 11:04:00,81.1,73.3,30.32,South,178,10.0,14.4,77,0.00, ,,-99.99,VWS V12.07,2013-07-05 15:04:00,
2013-07-05 11:09:00,81.1,73.8,30.32,South,191,9.9,14.4,79,0.00, ,,-99.99,VWS V12.07,2013-07-05 15:09:00,
2013-07-05 11:14:00,81.4,73.7,30.32,SSW,192,8.8,14.4,77,0.00, ,,-99.99,VWS V12.07,2013-07-05 15:14:00,
2013-07-05 11:19:00,81.3,73.2,30.32,SSW,201,10.5,14.5,76,0.00, ,,-99.99,VWS V12.07,2013-07-05 15:19:00,
2013-07-05 11:24:00,81.9,74.5,30.32,SSW,195,10.1,14.5,78,0.00, ,,-99.99,VWS V12.07,2013-07-05 15:24:00,
2013-07-05 11:29:00,81.8,72.9,30.32,SSW,199,9.8,14.5,74,0.00, ,,-99.99,VWS V12.07,2013-07-05 15:29:00,
2013-07-05 11:35:00,81.8,73.6,30.32,South,180,10.8,11.2,76,0.00, ,,-99.99,VWS V12.07,2013-07-05 15:35:00,
2013-07-05 11:40:00,81.4,73.6,30.32,SSW,198,9.8,13.4,77,0.00, ,,-99.99,VWS V12.07,2013-07-05 15:40:00,
2013-07-05 11:45:00,82.1,74.9,30.32,South,181,7.3,13.4,79,0.00, ,,-99.99,VWS V12.07,2013-07-05 15:45:00,
2013-07-05 11:49:00,81.8,73.7,30.32,SSW,195,10.0,14.1,77,0.00, ,,-99.99,VWS V12.07,2013-07-05 15:49:00,
2013-07-05 11:55:00,81.7,74.0,30.32,South,178,9.8,14.1,78,0.00, ,,-99.99,VWS V12.07,2013-07-05 15:55:00,
2013-07-05 12:00:00,83.2,75.0,30.32,SSW,213,9.8,14.5,76,0.00, ,,-99.99,VWS V12.07,2013-07-05 16:00:00,
2013-07-05 12:05:00,81.9,73.4,30.32,SSW,199,7.5,14.5,76,0.00, ,,-99.99,VWS V12.07,2013-07-05 16:05:00,
2013-07-05 12:10:00,81.3,73.2,30.32,SSW,213,8.5,14.5,76,0.00, ,,-99.99,VWS V12.07,2013-07-05 16:10:00,
2013-07-05 12:15:00,82.1,74.4,30.32,South,177,9.5,9.9,78,0.00, ,,-99.99,VWS V12.07,2013-07-05 16:15:00,
2013-07-05 12:20:00,81.3,73.5,30.32,SSW,192,10.3,15.8,77,0.00, ,,-99.99,VWS V12.07,2013-07-05 16:20:00,
2013-07-05 12:25:00,81.7,74.5,30.32,SSW,213,12.0,15.8,79,0.00, ,,-99.99,VWS V12.07,2013-07-05 16:25:00,
2013-07-05 12:30:00,81.8,73.8,30.32,SW,223,10.1,15.8,77,0.00, ,,-99.99,VWS V12.07,2013-07-05 16:30:00,
2013-07-05 12:35:00,81.4,73.8,30.32,SSW,199,10.7,12.4,78,0.00, ,,-99.99,VWS V12.07,2013-07-05 16:35:00,
2013-07-05 12:40:00,82.2,74.9,30.31,SSW,205,8.3,14.2,79,0.00, ,,-99.99,VWS V12.07,2013-07-05 16:40:00,
2013-07-05 12:45:00,82.6,74.5,30.32,SSW,201,10.6,14.2,76,0.00, ,,-99.99,VWS V12.07,2013-07-05 16:45:00,
2013-07-05 12:50:00,82.2,75.2,30.32,SSW,192,10.2,14.2,80,0.00, ,,-99.99,VWS V12.07,2013-07-05 16:50:00,
2013-07-05 12:55:00,82.0,74.2,30.31,South,190,15.2,15.5,77,0.00, ,,-99.99,VWS V12.07,2013-07-05 16:55:00,
2013-07-05 13:00:00,81.9,73.9,30.32,SW,215,11.9,16.2,77,0.00, ,,-99.99,VWS V12.07,2013-07-05 17:00:00,
2013-07-05 13:06:00,81.8,73.9,30.32,SSW,205,10.4,16.2,77,0.00, ,,-99.99,VWS V12.07,2013-07-05 17:06:00,
2013-07-05 13:11:00,82.2,74.2,30.31,SSW,205,10.6,16.2,77,0.00, ,,-99.99,VWS V12.07,2013-07-05 17:11:00,
2013-07-05 13:16:00,81.9,74.3,30.31,SSW,197,10.0,13.9,78,0.00, ,,-99.99,VWS V12.07,2013-07-05 17:16:00,
2013-07-05 13:21:00,81.7,73.4,30.31,SSW,194,10.5,16.0,76,0.00, ,,-99.99,VWS V12.07,2013-07-05 17:21:00,
2013-07-05 13:26:00,82.5,74.7,30.31,SSW,208,10.9,16.0,77,0.00, ,,-99.99,VWS V12.07,2013-07-05 17:26:00,
2013-07-05 13:31:00,81.4,74.0,30.31,SSW,205,9.9,16.0,78,0.00, ,,-99.99,VWS V12.07,2013-07-05 17:31:00,
2013-07-05 13:36:00,81.8,73.5,30.31,SSW,202,10.3,13.5,76,0.00, ,,-99.99,VWS V12.07,2013-07-05 17:36:00,
2013-07-05 13:41:00,82.4,74.0,30.30,South,173,12.2,15.3,76,0.00, ,,-99.99,VWS V12.07,2013-07-05 17:41:00,
2013-07-05 13:46:00,82.6,74.1,30.30,SSW,204,11.9,17.5,76,0.00, ,,-99.99,VWS V12.07,2013-07-05 17:46:00,
2013-07-05 13:51:00,82.4,73.5,30.30,SSW,209,9.5,17.5,75,0.00, ,,-99.99,VWS V12.07,2013-07-05 17:51:00,
2013-07-05 13:56:00,82.2,73.7,30.30,SW,230,10.0,17.1,75,0.00, ,,-99.99,VWS V12.07,2013-07-05 17:56:00,
2013-07-05 14:01:00,81.3,72.8,30.30,SSW,202,8.5,17.1,76,0.00, ,,-99.99,VWS V12.07,2013-07-05 18:01:00,
2013-07-05 14:06:00,82.4,73.2,30.30,SSW,205,12.5,17.1,74,0.00, ,,-99.99,VWS V12.07,2013-07-05 18:06:00,
2013-07-05 14:11:00,82.4,74.6,30.30,South,190,11.9,17.1,77,0.00, ,,-99.99,VWS V12.07,2013-07-05 18:11:00,
2013-07-05 14:14:00,81.7,74.4,30.29,SSW,197,11.4,17.1,78,0.00, ,,-99.99,VWS V12.07,2013-07-05 18:14:00,
2013-07-05 14:19:00,82.5,73.7,30.29,SSW,202,10.9,14.4,75,0.00, ,,-99.99,VWS V12.07,2013-07-05 18:19:00,
2013-07-05 14:24:00,82.5,74.3,30.29,South,180,13.9,14.4,76,0.00, ,,-99.99,VWS V12.07,2013-07-05 18:24:00,
2013-07-05 14:29:00,82.0,74.0,30.29,SSW,205,11.2,16.7,77,0.00, ,,-99.99,VWS V12.07,2013-07-05 18:29:00,
2013-07-05 14:34:00,81.6,74.3,30.29,SW,220,7.5,16.7,78,0.00, ,,-99.99,VWS V12.07,2013-07-05 18:34:00,
2013-07-05 14:39:00,81.4,73.8,30.29,SSW,204,10.8,17.2,78,0.00, ,,-99.99,VWS V12.07,2013-07-05 18:39:00,
2013-07-05 14:44:00,81.7,74.7,30.29,SSW,192,13.0,18.1,79,0.00, ,,-99.99,VWS V12.07,2013-07-05 18:44:00,
2013-07-05 14:50:00,82.6,74.7,30.29,South,185,13.7,18.1,77,0.00, ,,-99.99,VWS V12.07,2013-07-05 18:50:00,
2013-07-05 14:55:00,82.4,74.0,30.29,SSW,201,12.4,18.1,76,0.00, ,,-99.99,VWS V12.07,2013-07-05 18:55:00,
2013-07-05 15:00:00,82.0,74.2,30.29,SSW,204,11.0,16.4,77,0.00, ,,-99.99,VWS V12.07,2013-07-05 19:00:00,
2013-07-05 15:05:00,81.4,73.6,30.28,South,182,10.9,16.9,77,0.00, ,,-99.99,VWS V12.07,2013-07-05 19:05:00,
2013-07-05 15:10:00,81.6,73.7,30.29,SSW,208,11.2,16.9,77,0.00, ,,-99.99,VWS V12.07,2013-07-05 19:10:00,
2013-07-05 15:15:00,82.3,73.9,30.28,South,173,14.0,16.9,76,0.00, ,,-99.99,VWS V12.07,2013-07-05 19:15:00,
2013-07-05 15:20:00,82.4,74.3,30.28,SSW,201,12.7,15.0,76,0.00, ,,-99.99,VWS V12.07,2013-07-05 19:20:00,
2013-07-05 15:25:00,81.7,73.7,30.28,SSW,211,11.2,15.4,77,0.00, ,,-99.99,VWS V12.07,2013-07-05 19:25:00,
2013-07-05 15:30:00,82.5,74.5,30.28,South,190,12.7,15.7,77,0.00, ,,-99.99,VWS V12.07,2013-07-05 19:30:00,
2013-07-05 15:35:00,81.7,73.8,30.28,SSW,205,14.2,15.8,77,0.00, ,,-99.99,VWS V12.07,2013-07-05 19:35:00,
2013-07-05 15:40:00,82.4,74.6,30.27,SSW,206,12.3,16.4,77,0.00, ,,-99.99,VWS V12.07,2013-07-05 19:40:00,
2013-07-05 15:45:00,82.0,73.9,30.27,SW,226,9.3,16.8,76,0.00, ,,-99.99,VWS V12.07,2013-07-05 19:45:00,
2013-07-05 15:50:00,81.9,74.3,30.27,SSW,192,11.6,16.8,78,0.00, ,,-99.99,VWS V12.07,2013-07-05 19:50:00,
2013-07-05 15:55:00,82.1,73.9,30.27,SSW,198,12.0,17.6,76,0.00, ,,-99.99,VWS V12.07,2013-07-05 19:55:00,
2013-07-05 16:00:00,82.0,74.0,30.27,South,191,11.4,15.2,77,0.00, ,,-99.99,VWS V12.07,2013-07-05 20:00:00,
2013-07-05 16:05:00,82.2,74.1,30.26,SSW,197,13.5,17.3,76,0.00, ,,-99.99,VWS V12.07,2013-07-05 20:05:00,
2013-07-05 16:10:00,82.0,74.7,30.26,SSW,198,11.9,17.3,78,0.00, ,,-99.99,VWS V12.07,2013-07-05 20:10:00,
2013-07-05 16:15:00,81.3,73.4,30.26,South,191,14.7,17.6,77,0.00, ,,-99.99,VWS V12.07,2013-07-05 20:15:00,
2013-07-05 16:20:00,80.9,74.3,30.26,SSW,204,13.0,17.7,80,0.00, ,,-99.99,VWS V12.07,2013-07-05 20:20:00,
2013-07-05 16:25:00,81.4,73.7,30.26,SSW,206,12.7,17.7,77,0.00, ,,-99.99,VWS V12.07,2013-07-05 20:25:00,
2013-07-05 16:30:00,82.1,74.6,30.26,South,188,14.7,18.3,78,0.00, ,,-99.99,VWS V12.07,2013-07-05 20:30:00,
2013-07-05 16:35:00,81.1,73.4,30.26,SSW,204,12.9,18.3,78,0.00, ,,-99.99,VWS V12.07,2013-07-05 20:35:00,
2013-07-05 16:40:00,81.6,74.6,30.26,South,187,11.4,16.5,79,0.00, ,,-99.99,VWS V12.07,2013-07-05 20:40:00,
2013-07-05 16:45:00,81.4,74.1,30.25,South,174,13.2,16.5,78,0.00, ,,-99.99,VWS V12.07,2013-07-05 20:45:00,
2013-07-05 16:50:00,80.9,73.7,30.25,SSW,204,10.9,16.5,79,0.00, ,,-99.99,VWS V12.07,2013-07-05 20:50:00,
2013-07-05 16:55:00,81.3,73.4,30.25,SSW,195,12.3,13.1,77,0.00, ,,-99.99,VWS V12.07,2013-07-05 20:55:00,
2013-07-05 17:00:00,81.1,72.8,30.25,SSW,198,12.2,16.8,76,0.00, ,,-99.99,VWS V12.07,2013-07-05 21:00:00,
2013-07-05 17:05:00,81.4,73.9,30.25,South,191,12.2,16.8,78,0.00, ,,-99.99,VWS V12.07,2013-07-05 21:05:00,
2013-07-05 17:10:00,81.4,73.6,30.25,SSW,199,9.8,16.8,77,0.00, ,,-99.99,VWS V12.07,2013-07-05 21:10:00,
2013-07-05 17:15:00,81.9,74.1,30.24,SSW,192,14.7,15.6,77,0.00, ,,-99.99,VWS V12.07,2013-07-05 21:15:00,
2013-07-05 17:16:00,81.3,73.5,30.24,South,182,13.0,16.8,77,0.00, ,,-99.99,VWS V12.07,2013-07-05 21:16:00,
2013-07-05 17:21:00,81.6,74.7,30.24,SSW,201,11.4,16.8,80,0.00, ,,-99.99,VWS V12.07,2013-07-05 21:21:00,
2013-07-05 17:26:00,81.4,74.2,30.24,SSW,204,11.0,16.8,79,0.00, ,,-99.99,VWS V12.07,2013-07-05 21:26:00,
2013-07-05 17:31:00,81.6,74.5,30.24,SSW,201,9.5,17.0,79,0.00, ,,-99.99,VWS V12.07,2013-07-05 21:31:00,
2013-07-05 17:36:00,81.6,74.0,30.24,SSW,206,12.5,14.0,78,0.00, ,,-99.99,VWS V12.07,2013-07-05 21:36:00,
2013-07-05 17:41:00,82.0,74.5,30.24,SSW,201,9.9,15.9,78,0.00, ,,-99.99,VWS V12.07,2013-07-05 21:41:00,
2013-07-05 17:46:00,82.4,74.7,30.24,SSW,202,11.3,15.9,78,0.00, ,,-99.99,VWS V12.07,2013-07-05 21:46:00,
2013-07-05 17:51:00,81.6,73.8,30.24,South,185,13.2,15.9,77,0.00, ,,-99.99,VWS V12.07,2013-07-05 21:51:00,
2013-07-05 17:56:00,82.2,74.2,30.24,SSW,192,11.2,13.1,77,0.00, ,,-99.99,VWS V12.07,2013-07-05 21:56:00,
2013-07-05 18:01:00,83.0,74.5,30.24,SW,222,12.6,15.2,76,0.00, ,,-99.99,VWS V12.07,2013-07-05 22:01:00,
2013-07-05 18:06:00,81.2,73.0,30.24,SSW,195,10.7,15.2,76,0.00, ,,-99.99,VWS V12.07,2013-07-05 22:06:00,
2013-07-05 18:11:00,81.6,73.5,30.24,SSW,206,11.6,15.8,76,0.00, ,,-99.99,VWS V12.07,2013-07-05 22:11:00,
2013-07-05 18:16:00,81.7,72.9,30.23,South,182,13.1,13.5,75,0.00, ,,-99.99,VWS V12.07,2013-07-05 22:16:00,
2013-07-05 18:21:00,82.2,73.6,30.23,South,185,11.1,13.9,75,0.00, ,,-99.99,VWS V12.07,2013-07-05 22:21:00,
2013-07-05 18:26:00,81.6,72.3,30.23,South,187,11.9,13.9,74,0.00, ,,-99.99,VWS V12.07,2013-07-05 22:26:00,
2013-07-05 18:31:00,81.3,73.4,30.23,SSW,197,12.0,14.0,77,0.00, ,,-99.99,VWS V12.07,2013-07-05 22:31:00,
2013-07-05 18:36:00,81.2,73.4,30.23,South,184,12.2,13.5,77,0.00, ,,-99.99,VWS V12.07,2013-07-05 22:36:00,
2013-07-05 18:41:00,81.4,73.3,30.24,SSW,208,14.8,16.3,76,0.00, ,,-99.99,VWS V12.07,2013-07-05 22:41:00,
2013-07-05 18:44:00,81.2,73.4,30.24,SSW,201,11.9,16.3,77,0.00, ,,-99.99,VWS V12.07,2013-07-05 22:44:00,
2013-07-05 18:49:00,81.0,72.9,30.24,South,190,12.0,16.3,76,0.00, ,,-99.99,VWS V12.07,2013-07-05 22:49:00,
2013-07-05 18:54:00,81.0,73.0,30.24,SSW,205,12.3,16.3,77,0.00, ,,-99.99,VWS V12.07,2013-07-05 22:54:00,
2013-07-05 18:59:00,80.9,73.0,30.24,SSW,206,8.3,13.3,77,0.00, ,,-99.99,VWS V12.07,2013-07-05 22:59:00,
2013-07-05 19:04:00,81.3,73.2,30.23,SSW,201,11.7,15.2,77,0.00, ,,-99.99,VWS V12.07,2013-07-05 23:04:00,
2013-07-05 19:09:00,80.7,72.9,30.24,SSW,204,11.9,16.5,77,0.00, ,,-99.99,VWS V12.07,2013-07-05 23:09:00,
2013-07-05 19:14:00,80.5,73.1,30.24,SSW,195,9.9,16.5,78,0.00, ,,-99.99,VWS V12.07,2013-07-05 23:14:00,
2013-07-05 19:19:00,80.4,72.5,30.24,SSW,205,9.3,14.0,77,0.00, ,,-99.99,VWS V12.07,2013-07-05 23:19:00,
2013-07-05 19:24:00,81.0,73.2,30.24,South,187,11.5,14.1,77,0.00, ,,-99.99,VWS V12.07,2013-07-05 23:24:00,
2013-07-05 19:29:00,81.1,73.8,30.24,SW,222,9.8,14.1,78,0.00, ,,-99.99,VWS V12.07,2013-07-05 23:29:00,
2013-07-05 19:34:00,80.1,72.2,30.24,South,184,11.9,14.1,77,0.00, ,,-99.99,VWS V12.07,2013-07-05 23:34:00,
2013-07-05 19:39:00,80.3,72.6,30.24,SSW,192,12.2,13.6,77,0.00, ,,-99.99,VWS V12.07,2013-07-05 23:39:00,
2013-07-05 19:44:00,81.0,73.0,30.24,South,185,12.3,14.5,77,0.00, ,,-99.99,VWS V12.07,2013-07-05 23:44:00,
2013-07-05 19:49:00,80.0,72.4,30.24,SSW,206,11.2,14.5,78,0.00, ,,-99.99,VWS V12.07,2013-07-05 23:49:00,
2013-07-05 19:54:00,80.4,72.4,30.24,SSW,198,10.8,14.5,77,0.00, ,,-99.99,VWS V12.07,2013-07-05 23:54:00,
2013-07-05 20:00:00,80.3,72.9,30.24,SSW,195,10.4,13.8,78,0.00, ,,-99.99,VWS V12.07,2013-07-06 00:00:00,
2013-07-05 20:05:00,80.4,73.3,30.24,SW,223,8.9,14.2,79,0.00, ,,-99.99,VWS V12.07,2013-07-06 00:05:00,
2013-07-05 20:10:00,80.4,73.6,30.24,SSW,212,7.3,14.2,80,0.00, ,,-99.99,VWS V12.07,2013-07-06 00:10:00,
2013-07-05 20:16:00,80.4,74.0,30.25,SSW,206,10.3,10.4,81,0.00, ,,-99.99,VWS V12.07,2013-07-06 00:16:00,
2013-07-05 20:18:00,80.1,73.4,30.25,SSW,211,9.9,12.1,80,0.00, ,,-99.99,VWS V12.07,2013-07-06 00:18:00,
2013-07-05 20:23:00,80.9,74.6,30.25,SSW,199,9.8,13.5,81,0.00, ,,-99.99,VWS V12.07,2013-07-06 00:23:00,
2013-07-05 20:28:00,80.3,73.5,30.25,SSW,204,11.2,13.9,80,0.00, ,,-99.99,VWS V12.07,2013-07-06 00:28:00,
2013-07-05 20:33:00,80.4,74.0,30.25,SSW,198,7.8,16.2,81,0.00, ,,-99.99,VWS V12.07,2013-07-06 00:33:00,
2013-07-05 20:38:00,80.4,74.3,30.25,SSW,194,11.3,11.9,82,0.00, ,,-99.99,VWS V12.07,2013-07-06 00:38:00,
2013-07-05 20:43:00,80.2,73.0,30.25,SSW,212,9.8,16.0,79,0.00, ,,-99.99,VWS V12.07,2013-07-06 00:43:00,
2013-07-05 20:48:00,80.2,73.5,30.25,SSW,197,12.2,16.7,80,0.00, ,,-99.99,VWS V12.07,2013-07-06 00:48:00,
2013-07-05 20:53:00,80.5,73.7,30.25,SSW,206,7.7,17.9,80,0.00, ,,-99.99,VWS V12.07,2013-07-06 00:53:00,
2013-07-05 20:58:00,80.5,74.2,30.25,SSW,208,6.2,14.0,81,0.00, ,,-99.99,VWS V12.07,2013-07-06 00:58:00,
2013-07-05 21:03:00,80.4,73.8,30.25,SSW,194,8.8,15.0,80,0.00, ,,-99.99,VWS V12.07,2013-07-06 01:03:00,
2013-07-05 21:08:00,80.3,72.7,30.25,SSW,213,9.7,15.0,78,0.00, ,,-99.99,VWS V12.07,2013-07-06 01:08:00,
2013-07-05 21:13:00,80.0,72.6,30.25,South,174,12.5,15.0,78,0.00, ,,-99.99,VWS V12.07,2013-07-06 01:13:00,
2013-07-05 21:18:00,80.3,72.7,30.26,SSW,208,13.2,16.2,78,0.00, ,,-99.99,VWS V12.07,2013-07-06 01:18:00,
2013-07-05 21:23:00,80.4,73.0,30.26,SSW,202,12.2,16.2,78,0.00, ,,-99.99,VWS V12.07,2013-07-06 01:23:00,
2013-07-05 21:28:00,79.9,72.8,30.25,SSW,206,12.3,16.7,79,0.00, ,,-99.99,VWS V12.07,2013-07-06 01:28:00,
2013-07-05 21:34:00,79.9,73.2,30.25,South,177,13.0,16.7,80,0.00, ,,-99.99,VWS V12.07,2013-07-06 01:34:00,
2013-07-05 21:39:00,80.0,73.0,30.26,SW,218,12.6,14.9,79,0.00, ,,-99.99,VWS V12.07,2013-07-06 01:39:00,
2013-07-05 21:44:00,80.1,73.6,30.26,SSW,192,9.6,14.9,81,0.00, ,,-99.99,VWS V12.07,2013-07-06 01:44:00,
2013-07-05 21:49:00,80.2,74.0,30.26,SW,215,10.4,14.9,81,0.00, ,,-99.99,VWS V12.07,2013-07-06 01:49:00,
2013-07-05 21:54:00,80.1,73.9,30.26,SSW,208,9.7,15.0,81,0.00, ,,-99.99,VWS V12.07,2013-07-06 01:54:00,
2013-07-05 21:59:00,80.0,73.7,30.26,SSW,211,9.8,15.5,81,0.00, ,,-99.99,VWS V12.07,2013-07-06 01:59:00,
2013-07-05 22:04:00,80.3,74.2,30.26,SSW,206,11.2,15.5,82,0.00, ,,-99.99,VWS V12.07,2013-07-06 02:04:00,
2013-07-05 22:09:00,79.9,73.8,30.26,South,180,13.5,15.5,82,0.00, ,,-99.99,VWS V12.07,2013-07-06 02:09:00,
2013-07-05 22:14:00,80.0,74.1,30.26,SSE,166,10.7,15.5,82,0.00, ,,-99.99,VWS V12.07,2013-07-06 02:14:00,
2013-07-05 22:19:00,79.7,73.7,30.26,SSW,199,11.3,14.5,82,0.00, ,,-99.99,VWS V12.07,2013-07-06 02:19:00,
2013-07-05 22:24:00,79.9,74.1,30.26,SSW,195,12.4,16.0,82,0.00, ,,-99.99,VWS V12.07,2013-07-06 02:24:00,
2013-07-05 22:29:00,79.5,73.4,30.27,SSW,192,14.7,16.5,82,0.00, ,,-99.99,VWS V12.07,2013-07-06 02:29:00,
2013-07-05 22:34:00,80.0,73.9,30.27,SSW,204,8.6,16.5,82,0.00, ,,-99.99,VWS V12.07,2013-07-06 02:34:00,
2013-07-05 22:39:00,79.9,73.8,30.27,SSW,213,9.9,15.2,82,0.00, ,,-99.99,VWS V12.07,2013-07-06 02:39:00,
2013-07-05 22:44:00,80.2,74.0,30.27,SSW,197,11.3,16.7,82,0.00, ,,-99.99,VWS V12.07,2013-07-06 02:44:00,
2013-07-05 22:49:00,80.0,73.9,30.27,SSW,195,12.7,16.7,82,0.00, ,,-99.99,VWS V12.07,2013-07-06 02:49:00,
2013-07-05 22:54:00,79.9,72.8,30.27,SSW,204,16.4,18.1,79,0.00, ,,-99.99,VWS V12.07,2013-07-06 02:54:00,
2013-07-05 22:59:00,80.1,73.2,30.28,SSW,192,13.5,16.4,79,0.00, ,,-99.99,VWS V12.07,2013-07-06 02:59:00,
2013-07-05 23:04:00,80.4,73.8,30.28,SSW,195,9.6,16.4,80,0.00, ,,-99.99,VWS V12.07,2013-07-06 03:04:00,
2013-07-05 23:09:00,80.4,73.7,30.28,SW,233,7.2,16.4,80,0.00, ,,-99.99,VWS V12.07,2013-07-06 03:09:00,
2013-07-05 23:14:00,80.4,73.9,30.28,SSW,211,10.7,16.4,81,0.00, ,,-99.99,VWS V12.07,2013-07-06 03:14:00,
2013-07-05 23:19:00,79.8,73.1,30.28,SW,232,12.4,16.3,80,0.00, ,,-99.99,VWS V12.07,2013-07-06 03:19:00,
2013-07-05 23:24:00,79.9,73.6,30.28,SSW,197,8.6,16.3,81,0.00, ,,-99.99,VWS V12.07,2013-07-06 03:24:00,
2013-07-05 23:29:00,80.2,73.6,30.28,SSW,201,6.8,16.3,80,0.00, ,,-99.99,VWS V12.07,2013-07-06 03:29:00,
2013-07-05 23:34:00,80.1,73.7,30.28,SW,235,11.6,16.3,81,0.00, ,,-99.99,VWS V12.07,2013-07-06 03:34:00,
2013-07-05 23:39:00,80.1,74.1,30.28,SW,225,11.5,14.7,82,0.00, ,,-99.99,VWS V12.07,2013-07-06 03:39:00,
2013-07-05 23:44:00,79.8,73.6,30.28,SSW,205,13.7,16.1,81,0.00, ,,-99.99,VWS V12.07,2013-07-06 03:44:00,
2013-07-05 23:49:00,80.0,74.1,30.28,SSW,201,11.3,16.1,82,0.00, ,,-99.99,VWS V12.07,2013-07-06 03:49:00,
2013-07-05 23:54:00,79.9,73.8,30.28,SSW,212,10.3,16.1,82,0.00, ,,-99.99,VWS V12.07,2013-07-06 03:54:00,
2013-07-05 23:59:00,79.8,73.7,30.28,SW,216,12.1,13.3,82,0.00, ,,-99.99,VWS V12.07,2013-07-06 03:59:00,